Regional Weather Roundup
Issued by NWS Goodland, KS

Home | Current Version | Previous Version | Text Only | Print | Product List | Glossary On
Versions: 1 2 3 4 5 6 7 8 9 10 11 12 13 14 15 16 17 18 19 20 21 22 23 24 25 26 27 28 29 30 31 32 33 34 35 36 37 38 39 40 41 42 43 44 45 46 47 48 49 50
000
ASUS43 KGLD 300108
RWRGLD

GOODLAND FORECAST AREA HOURLY WEATHER ROUNDUP
NATIONAL WEATHER SERVICE GOODLAND KS
700 PM MDT SUN MAR 29 2015

...OFFICIAL OBSERVATIONS...

CITY           SKY/WX    TMP DP  RH WIND       PRES   REMARKS
GOODLAND KS    CLEAR     55  22  27 NE5       30.17R
HILL CITY KS   CLEAR     56  16  20 N8        30.17R
IMPERIAL NEB     N/A     59  19  21 E5        30.15R
MCCOOK NEB     CLEAR     60  17  18 NE5       30.15R
AKRON CO       CLEAR     55  22  27 SE6       30.17R
BURLINGTON CO  PTCLDY    57  18  21 E5        30.18S
LIMON CO       CLEAR     54  22  28 SE7       30.19S
$$

...UNOFFICIAL OBSERVATIONS...

CITY           SKY/WX    TMP DP  RH WIND       PRES   REMARKS
COLBY KS       CLEAR     57  27  30 NE5       30.18S
GOVE KS          N/A     60  32  34 MISG        N/A
LENORA KS        N/A     57  32  39 MISG        N/A
NORTON KS      CLEAR     54   5  14 N5        30.15S
SHARON SPRINGS   N/A     59  24  26 CALM        N/A
TRIBUNE KS     CLEAR     59  32  36 NE6       30.21R
KIT CARSON CO    N/A     59  24  26 MISG        N/A
YUMA CO          N/A     58  19  22 CALM        N/A
$$



USA.gov is the U.S. government's official web portal to all federal, state and local government web resources and services.